Regional Weather Roundup
Issued by NWS

Home | Current Version | Previous Version | Graphics & Text | Print | Product List | Glossary On
Versions: 1 2 3 4 5 6 7 8 9 10 11 12 13 14 15 16 17 18 19 20 21 22 23 24 25 26 27 28 29 30 31 32 33 34 35 36 37 38 39 40 41 42 43 44 45 46 47 48 49 50
000
ASUS45 KABQ 251801
RWRNM
WEATHER ROUNDUP FOR NEW MEXICO
NATIONAL WEATHER SERVICE ALBUQUERQUE NM
1200 PM MDT SAT OCT 25 2014

NOTE: "FAIR" MEANS FEW OR NO CLOUDS BELOW 12,000 FEET AGL WITH NO
       SIGNIFICANT WEATHER OR OBSTRUCTIONS TO VISION.

      THIS PRODUCT IS RELEASED AS TWO VERSIONS.  ONE VERSION NEAR
      THE TOP OF THE HOUR CONTAINING PRELIMINARY DATA FROM ALBUQUERQUE
      AND OTHER STATIONS.  A FINAL VERSION WITH ADDITIONAL DATA IS
      ISSUED ABOUT 10 MINUTES AFTER THE HOUR.

NMZ501-503-504-510>518-251900-
NORTHWEST PLATEAU/NORTHCENTRAL MOUNTAINS

CITY           SKY/WX    TMP DP  RH WIND       PRES   REMARKS
FARMINGTON     SUNNY     67  33  28 E8        30.30F
6HR MIN TEMP:  41; 6HR MAX TEMP:  67;

LOS ALAMOS     SUNNY     64  26  23 SE6       30.40S
SANTA FE       SUNNY     70  22  16 VRB5      30.34F
6HR MIN TEMP:  42; 6HR MAX TEMP:  71;

TAOS           SUNNY     64  25  22 CALM      30.38F
ANGEL FIRE     FAIR      65  21  18 CALM      30.42F

$$
NMZ402-403-502-505>509-251900-
WESTCENTRAL MOUNTAINS/SOUTHWEST MOUNTAINS

CITY           SKY/WX    TMP DP  RH WIND       PRES   REMARKS
GALLUP         SUNNY     70  39  32 SW13      30.37F
6HR MIN TEMP:  33; 6HR MAX TEMP:  70;

GRANTS         SUNNY     66  30  26 CALM      30.38F
SILVER CITY    SUNNY     75  39  27 SW3       30.34S

$$
NMZ407-409-411-412-251900-
SOUTHERN DESERTS

CITY           SKY/WX    TMP DP  RH WIND       PRES   REMARKS
LORDSBURG      FAIR      75  45  33 SE5       30.26F
DEMING         SUNNY     75  45  34 SE6       30.26F
6HR MIN TEMP:  45; 6HR MAX TEMP:  76;

HOLLOMAN AFB   MOSUNNY   74  47  37 S7        30.24F
T OR C         SUNNY     72  46  39 CALM      30.28F
6HR MIN TEMP:  51; 6HR MAX TEMP:  72;


$$
NMZ519>523-251900-
CENTRAL VALLEYS/CENTRAL HIGHLANDS

CITY           SKY/WX    TMP DP  RH WIND       PRES   REMARKS
ALBUQUERQUE    SUNNY     69  37  30 S5        30.32F
6HR MIN TEMP:  50; 6HR MAX TEMP:  69;

DOUBLE EAGLE   SUNNY     66  28  24 VRB5      30.35F
MORIARTY ARPT  FAIR      71  33  24 CALM      30.35S
6HR MIN TEMP:  29; 6HR MAX TEMP:  72;

CLINES CORNERS SUNNY     71  27  19 W17G24    30.35F
6HR MIN TEMP:  44; 6HR MAX TEMP:  71;

BELEN          FAIR      68  33  27 SE3       30.32F
SOCORRO        FAIR      69  42  37 CALM      30.30F
6HR MIN TEMP:  46; 6HR MAX TEMP:  69;


$$
NMZ524>526-539-540-251900-
SOUTHCENTRAL MOUNTAINS

CITY           SKY/WX    TMP DP  RH WIND       PRES   REMARKS
RUIDOSO        SUNNY     70  36  28 SW3       30.40S

$$
NMZ527>531-251900-
NORTHEAST HIGHLANDS/NORTHEAST PLAINS

CITY           SKY/WX    TMP DP  RH WIND       PRES   REMARKS
LAS VEGAS      SUNNY     76  20  12 VRB5      30.31F
6HR MIN TEMP:  41; 6HR MAX TEMP:  76;

RATON          SUNNY     78  21  12 CALM      30.26F
6HR MIN TEMP:  37; 6HR MAX TEMP:  78;

CLAYTON        SUNNY     82  29  14 S12       30.19F
6HR MIN TEMP:  51; 6HR MAX TEMP:  82;


$$
NMZ532>537-251900-
EASTCENTRAL PLAINS

CITY           SKY/WX    TMP DP  RH WIND       PRES   REMARKS
TUCUMCARI      SUNNY     80  33  18 SW6       30.16F
6HR MIN TEMP:  46; 6HR MAX TEMP:  80;

CANNON AFB     SUNNY     79  45  30 SW8       30.21F
6HR MIN TEMP:  53; 6HR MAX TEMP:  79;

CLOVIS AIRPORT SUNNY     79  46  31 S8        30.24F

$$
NMZ028-029-538-251900-
SOUTHEAST PLAINS

CITY           SKY/WX    TMP DP  RH WIND       PRES   REMARKS
ROSWELL        SUNNY     75  51  43 S5        30.20F
6HR MIN TEMP:  49; 6HR MAX TEMP:  75;

CARLSBAD       SUNNY     74  57  55 E6        30.19F
6HR MIN TEMP:  50; 6HR MAX TEMP:  74;

HOBBS          SUNNY     81  54  39 S12       30.22F


$$



USA.gov is the U.S. government's official web portal to all federal, state and local government web resources and services.